Location: Davidschlag
(48.4333°N, 14.2833°E)
Time: 03:15:22
(UTC+00:00)

STARLINK-1045 - Pass Details

Date: 27 February 2020
Orbit: 549 x 550 km, 53.0° (Epoch: 02 April)

Event Time Altitude Azimuth Distance (km) Brightness Sun altitude
Rises 18:24:44 0° 243° (WSW) 2,714 8.1 -17.7°
Reaches altitude 10° 18:26:58 10° 243° (WSW) 1,824 7.1 -18.0°
Maximum altitude 18:31:07 90° 303° (WNW) 557 3.5 -18.7°
Enters shadow 18:32:28 42° 64° (ENE) 793 4.0 -18.9°
